• în Republica Moldova
  • Lista ţărilor
  • Pe 7 zile
  • Temperatura apei
  • Hartă satelitară
  • Meteo pe hartă
  • Widget-uri
  • user-avatar
    Intrare

    Meteo pe oră la Shaki

    Astăzi, 28 Mai, Duminică

    Timp Temperatura Precipitaţii Vânt Presiune Umiditate
    00:00 +18°C° 0,1 mm 1 m/s 732 mmHg 48%
    01:00 +16°C° 0 mm 2 m/s 732 mmHg 49%
    02:00 +16°C° 0 mm 2 m/s 732 mmHg 50%
    03:00 +16°C° 0 mm 3 m/s 732 mmHg 44%
    04:00 +17°C° 0 mm 2 m/s 733 mmHg 45%
    05:00 +18°C° 0 mm 2 m/s 733 mmHg 46%
    06:00 +19°C° 0 mm 2 m/s 733 mmHg 47%
    07:00 +21°C° 0 mm 2 m/s 733 mmHg 41%
    08:00 +24°C° 0 mm 2 m/s 733 mmHg 34%
    09:00 +27°C° 0 mm 3 m/s 733 mmHg 28%
    10:00 +28°C° 0 mm 3 m/s 733 mmHg 26%
    11:00 +29°C° 0 mm 3 m/s 733 mmHg 24%
    12:00 +30°C° 0 mm 3 m/s 733 mmHg 22%
    13:00 +30°C° 0 mm 3 m/s 732 mmHg 21%
    14:00 +30°C° 0 mm 3 m/s 732 mmHg 21%
    15:00 +30°C° 0 mm 3 m/s 732 mmHg 20%
    16:00 +29°C° 0 mm 3 m/s 732 mmHg 25%
    17:00 +28°C° 0 mm 2 m/s 733 mmHg 30%
    18:00 +27°C° 0 mm 2 m/s 733 mmHg 36%
    19:00 +24°C° 0,1 mm 2 m/s 734 mmHg 40%
    20:00 +20°C° 0,1 mm 2 m/s 734 mmHg 45%
    21:00 +19°C° 0,1 mm 1 m/s 735 mmHg 50%
    22:00 +18°C° 0 mm 1 m/s 735 mmHg 55%
    23:00 +18°C° 0 mm 1 m/s 735 mmHg 60%

    Mâine, 29 Mai, Luni

    Timp Temperatura Precipitaţii Vânt Presiune Umiditate
    00:00 +16°C° 0 mm 1 m/s 736 mmHg 65%
    01:00 +16°C° 0 mm 1 m/s 736 mmHg 66%
    02:00 +15°C° 0 mm 1 m/s 736 mmHg 67%
    03:00 +15°C° 0 mm 1 m/s 736 mmHg 68%
    04:00 +16°C° 0 mm 1 m/s 736 mmHg 63%
    05:00 +19°C° 0 mm 1 m/s 737 mmHg 59%
    06:00 +20°C° 0 mm 1 m/s 737 mmHg 54%
    07:00 +22°C° 0 mm 1 m/s 737 mmHg 49%
    08:00 +24°C° 0 mm 1 m/s 738 mmHg 43%
    09:00 +25°C° 0 mm 1 m/s 738 mmHg 38%
    10:00 +26°C° 0 mm 2 m/s 738 mmHg 35%
    11:00 +27°C° 0 mm 2 m/s 738 mmHg 33%
    12:00 +28°C° 0 mm 3 m/s 738 mmHg 31%
    13:00 +29°C° 0 mm 3 m/s 737 mmHg 31%
    14:00 +29°C° 0 mm 3 m/s 737 mmHg 31%
    15:00 +29°C° 0 mm 3 m/s 737 mmHg 32%
    16:00 +28°C° 0 mm 3 m/s 737 mmHg 35%
    17:00 +27°C° 0 mm 3 m/s 737 mmHg 38%
    18:00 +27°C° 0 mm 3 m/s 737 mmHg 41%
    19:00 +24°C° 0 mm 3 m/s 738 mmHg 49%
    20:00 +21°C° 0 mm 4 m/s 738 mmHg 56%
    21:00 +18°C° 0 mm 4 m/s 738 mmHg 64%
    22:00 +18°C° 0 mm 3 m/s 738 mmHg 67%
    23:00 +18°C° 0 mm 3 m/s 738 mmHg 70%

    Poimâine, 30 Mai, Marţi

    Timp Temperatura Precipitaţii Vânt Presiune Umiditate
    00:00 +17°C° 0 mm 3 m/s 738 mmHg 74%
    01:00 +17°C° 0 mm 2 m/s 738 mmHg 75%
    02:00 +16°C° 0 mm 2 m/s 738 mmHg 76%
    03:00 +16°C° 0 mm 2 m/s 737 mmHg 77%
    04:00 +18°C° 0 mm 1 m/s 737 mmHg 72%
    05:00 +19°C° 0 mm 1 m/s 737 mmHg 67%
    06:00 +20°C° 0 mm 1 m/s 737 mmHg 62%
    07:00 +22°C° 0 mm 1 m/s 737 mmHg 55%
    08:00 +24°C° 0 mm 2 m/s 736 mmHg 48%
    09:00 +26°C° 0 mm 2 m/s 736 mmHg 42%
    10:00 +27°C° 0 mm 2 m/s 736 mmHg 37%
    11:00 +28°C° 0 mm 2 m/s 735 mmHg 33%
    12:00 +30°C° 0 mm 2 m/s 735 mmHg 28%
    13:00 +30°C° 0 mm 2 m/s 734 mmHg 26%
    14:00 +31°C° 0 mm 2 m/s 734 mmHg 24%
    15:00 +31°C° 0 mm 3 m/s 734 mmHg 21%
    16:00 +31°C° 0 mm 2 m/s 734 mmHg 24%
    17:00 +30°C° 0 mm 2 m/s 734 mmHg 27%
    18:00 +29°C° 0 mm 1 m/s 734 mmHg 29%
    19:00 +26°C° 0 mm 1 m/s 734 mmHg 32%
    20:00 +23°C° 0 mm 1 m/s 734 mmHg 34%
    21:00 +20°C° 0 mm 1 m/s 734 mmHg 37%
    22:00 +20°C° 0 mm 1 m/s 734 mmHg 35%
    23:00 +20°C° 0 mm 1 m/s 734 mmHg 33%

    31 Mai, Miercuri

    Timp Temperatura Precipitaţii Vânt Presiune Umiditate
    00:00 +19°C° 0 mm 1 m/s 734 mmHg 31%
    01:00 +19°C° 0 mm 1 m/s 734 mmHg 31%
    02:00 +19°C° 0 mm 1 m/s 733 mmHg 32%
    03:00 +18°C° 0 mm 1 m/s 733 mmHg 33%
    04:00 +20°C° 0 mm 1 m/s 734 mmHg 36%
    05:00 +22°C° 0 mm 1 m/s 734 mmHg 39%
    06:00 +24°C° 0 mm 1 m/s 734 mmHg 41%
    07:00 +26°C° 0 mm 1 m/s 734 mmHg 35%
    08:00 +28°C° 0 mm 1 m/s 734 mmHg 28%
    09:00 +30°C° 0 mm 1 m/s 734 mmHg 22%
    10:00 +31°C° 0 mm 1 m/s 734 mmHg 20%
    11:00 +32°C° 0 mm 2 m/s 734 mmHg 19%
    12:00 +34°C° 0 mm 2 m/s 733 mmHg 18%
    13:00 +34°C° 0 mm 2 m/s 733 mmHg 18%
    14:00 +34°C° 0 mm 2 m/s 733 mmHg 18%
    15:00 +34°C° 0 mm 2 m/s 732 mmHg 18%
    16:00 +32°C° 0 mm 2 m/s 732 mmHg 22%
    17:00 +31°C° 0 mm 2 m/s 732 mmHg 26%
    18:00 +30°C° 0 mm 2 m/s 732 mmHg 30%
    19:00 +27°C° 0 mm 2 m/s 732 mmHg 31%
    20:00 +25°C° 0 mm 3 m/s 732 mmHg 32%
    21:00 +21°C° 0 mm 3 m/s 733 mmHg 34%
    22:00 +21°C° 0,2 mm 2 m/s 733 mmHg 38%
    23:00 +20°C° 0,2 mm 2 m/s 733 mmHg 42%

    1 Iunie, Joi

    Timp Temperatura Precipitaţii Vânt Presiune Umiditate
    00:00 +21°C° 0,2 mm 1 m/s 733 mmHg 46%
    01:00 +20°C° 0,5 mm 1 m/s 732 mmHg 50%
    02:00 +20°C° 0,5 mm 1 m/s 732 mmHg 54%
    03:00 +19°C° 0,5 mm 1 m/s 732 mmHg 58%
    04:00 +20°C° 0,4 mm 1 m/s 732 mmHg 58%
    05:00 +20°C° 0,4 mm 2 m/s 732 mmHg 57%
    06:00 +21°C° 0,4 mm 2 m/s 732 mmHg 57%
    07:00 +23°C° 0,1 mm 2 m/s 732 mmHg 50%
    08:00 +25°C° 0,1 mm 2 m/s 732 mmHg 44%
    09:00 +27°C° 0,1 mm 2 m/s 732 mmHg 38%
    10:00 +28°C° 0,2 mm 2 m/s 731 mmHg 36%
    11:00 +29°C° 0,2 mm 2 m/s 731 mmHg 34%
    12:00 +30°C° 0,2 mm 2 m/s 730 mmHg 33%
    13:00 +30°C° 0,2 mm 2 m/s 730 mmHg 31%
    14:00 +30°C° 0,2 mm 1 m/s 730 mmHg 30%
    15:00 +31°C° 0,2 mm 1 m/s 730 mmHg 28%
    16:00 +30°C° 0 mm 1 m/s 730 mmHg 30%
    17:00 +29°C° 0 mm 1 m/s 730 mmHg 32%
    18:00 +28°C° 0 mm 1 m/s 730 mmHg 33%
    19:00 +25°C° 0 mm 1 m/s 730 mmHg 31%
    20:00 +23°C° 0 mm 2 m/s 731 mmHg 28%
    21:00 +19°C° 0 mm 2 m/s 731 mmHg 26%
    22:00 +19°C° 0,1 mm 2 m/s 731 mmHg 29%
    23:00 +19°C° 0,1 mm 1 m/s 731 mmHg 33%

    2 Iunie, Vineri

    Timp Temperatura Precipitaţii Vânt Presiune Umiditate
    00:00 +19°C° 0,1 mm 1 m/s 731 mmHg 36%
    01:00 +19°C° 0 mm 1 m/s 731 mmHg 39%
    02:00 +17°C° 0 mm 2 m/s 731 mmHg 42%
    03:00 +17°C° 0 mm 2 m/s 731 mmHg 45%
    04:00 +18°C° 0 mm 2 m/s 731 mmHg 45%
    05:00 +19°C° 0 mm 2 m/s 732 mmHg 46%
    06:00 +21°C° 0 mm 3 m/s 732 mmHg 47%
    07:00 +24°C° 0 mm 3 m/s 732 mmHg 41%
    08:00 +25°C° 0 mm 3 m/s 732 mmHg 35%
    09:00 +27°C° 0 mm 4 m/s 732 mmHg 29%
    10:00 +28°C° 0 mm 3 m/s 732 mmHg 28%
    11:00 +29°C° 0 mm 3 m/s 732 mmHg 26%
    12:00 +30°C° 0 mm 3 m/s 732 mmHg 24%
    13:00 +30°C° 0 mm 3 m/s 732 mmHg 24%
    14:00 +31°C° 0 mm 2 m/s 732 mmHg 24%
    15:00 +31°C° 0 mm 2 m/s 732 mmHg 24%
    16:00 +30°C° 0 mm 2 m/s 732 mmHg 27%
    17:00 +29°C° 0 mm 1 m/s 732 mmHg 30%
    18:00 +28°C° 0 mm 1 m/s 732 mmHg 32%
    19:00 +26°C° 0 mm 1 m/s 733 mmHg 36%
    20:00 +23°C° 0 mm 2 m/s 733 mmHg 40%
    21:00 +20°C° 0 mm 2 m/s 733 mmHg 43%
    22:00 +19°C° 0 mm 2 m/s 733 mmHg 45%
    23:00 +19°C° 0 mm 1 m/s 733 mmHg 47%
    Arată mai mult